SBIRS GEO 4 (USA 273)

导读 | 星芒AI

SBIRS GEO 4(USA-273)是美国空军空间监视系统的一部分,属于天基红外系统(SBIRS)地球同步轨道卫星系列。该卫星于2014年11月由Atlas V火箭发射,用于导弹发射探测和空间监视,具备高灵敏度的红外传感器,可提供全球实时预警能力。SBIRS GEO 4 由洛克希德·马丁公司建造,部署在地球同步轨道,与其他 SBIRS 卫星和低地球轨道卫星协同工作,增强战略与战术导弹防御系统的响应能力。

基本信息
目录编号:
41937
目录名称:
SBIRS GEO 4 (USA 273)
国际标识:
2017-004A
轨道中心:
EARTH
卫星名称:
SBIRS GEO 4 (USA 273)
卫星全名:
--
卫星状态:
在轨 (已飞行3209 天)
发射日期:
2017-01-21 UTC
国别 :
美国 (US)
星等 :
--
轨道信息
数据来源 国际轨道数据 AOE轨道数据
星历时间 2025-11-04T14:06:31+0800
15小时前
查看轨道信息
2025-11-04T08:00:00+0800
21小时前
查看轨道信息
半长轴 42164.84km 42164.7km
偏心率 0.0002193 0.0002388
轨道倾角 1.843° 1.842°
近地点辐角 193.809° 187.069°
升交点赤经 35.103° 35.124°
平近点角 287.397° 202.240°
近地点 35777.458km 35776.496km
远地点 35795.952km 35796.634km
周期 1436.102分钟 1436.095分钟
每日圈数 1.002714 1.002719
详细信息
使用方式:
暂无
2D轨道图
3D轨道图
轨道高度分析图
轨道倾角分析图
轨道综合分析图
查看轨道综合分析图